SIA962 WSSS-WIII

Flight info

Callsign SIA962
Flight time 1h 20m
Altitude 36000
Route ANITO8B ANITO B470 BUNIK BUNIK2F
Aircraft A359/H-SDE2E3GHIJ3J4J5LM1ORWXY/LB1D1

Departure

Time 2026-05-06 08:45
Airport Singapore Changi Airport (WSSS)

Arrival

Time 2026-05-06 10:06
Airport Soekarno-Hatta International Airport (WIII)
Time Latitude Longitude Altitude Speed Heading
2026-05-06 08:31 1.36059 103.99235 31 ft 0 kts 290°
2026-05-06 08:37 1.36055 103.99245 31 ft 4 kts 288°
2026-05-06 08:37 1.36045 103.99269 29 ft 4 kts 296°
2026-05-06 08:37 1.36032 103.99293 28 ft 4 kts 302°
2026-05-06 08:38 1.36022 103.99308 31 ft 1 kts 302°
2026-05-06 08:38 1.36020 103.99311 30 ft 0 kts 302°
2026-05-06 08:40 1.36015 103.99319 30 ft 3 kts 321°
2026-05-06 08:41 1.35999 103.99328 30 ft 3 kts 359°
2026-05-06 08:41 1.35995 103.99328 30 ft 0 kts
2026-05-06 08:42 1.36031 103.99335 31 ft 13 kts 14°
2026-05-06 08:43 1.36154 103.99383 31 ft 24 kts 22°
2026-05-06 08:43 1.36295 103.99467 31 ft 24 kts 44°
2026-05-06 08:43 1.36406 103.99590 31 ft 22 kts 32°
2026-05-06 08:43 1.36451 103.99699 30 ft 18 kts 107°
2026-05-06 08:44 1.36402 103.99820 31 ft 20 kts 117°
2026-05-06 08:44 1.36292 103.99881 33 ft 17 kts 180°
2026-05-06 08:44 1.36172 103.99887 33 ft 13 kts 193°
2026-05-06 08:44 1.36159 103.99882 33 ft 11 kts 199°
2026-05-06 08:45 1.35855 103.99738 36 ft 85 kts 201°
2026-05-06 08:45 1.35053 103.99403 37 ft 168 kts 202°
2026-05-06 08:45 1.33793 103.98868 527 ft 213 kts 204°
2026-05-06 08:45 1.32334 103.98245 1400 ft 248 kts 202°
2026-05-06 08:46 1.30714 103.97565 2239 ft 252 kts 202°
2026-05-06 08:46 1.29084 103.96882 2865 ft 257 kts 203°
2026-05-06 08:46 1.27419 103.96181 3417 ft 263 kts 203°
2026-05-06 08:46 1.25718 103.95471 4030 ft 267 kts 203°
2026-05-06 08:47 1.23982 103.94795 4679 ft 270 kts 197°
2026-05-06 08:47 1.22111 103.94627 5231 ft 273 kts 173°
2026-05-06 08:47 1.20234 103.94997 5691 ft 276 kts 166°
2026-05-06 08:47 1.18376 103.95471 5800 ft 277 kts 166°
2026-05-06 08:48 1.16503 103.95953 5816 ft 278 kts 166°
2026-05-06 08:48 1.14627 103.96429 5814 ft 279 kts 166°
2026-05-06 08:48 1.12746 103.96900 5816 ft 279 kts 166°
2026-05-06 08:48 1.10903 103.97484 5815 ft 279 kts 155°
2026-05-06 08:49 1.09267 103.98527 5819 ft 278 kts 143°
2026-05-06 08:49 1.07732 103.99708 5821 ft 278 kts 142°
2026-05-06 08:49 1.06207 104.00900 5948 ft 278 kts 143°
2026-05-06 08:49 1.04689 104.02081 6446 ft 280 kts 143°
2026-05-06 08:50 1.03208 104.03347 7050 ft 281 kts 133°
2026-05-06 08:50 1.02451 104.04426 7441 ft 282 kts 118°
2026-05-06 08:50 1.01385 104.06800 8190 ft 284 kts 112°
2026-05-06 08:50 1.00629 104.08632 8771 ft 287 kts 112°
2026-05-06 08:51 0.99861 104.10479 9360 ft 288 kts 112°
2026-05-06 08:51 0.99085 104.12331 9926 ft 290 kts 112°
2026-05-06 08:51 0.98291 104.14229 10201 ft 303 kts 112°
2026-05-06 08:51 0.97459 104.16213 10397 ft 316 kts 112°
2026-05-06 08:52 0.96588 104.18281 10598 ft 330 kts 112°
2026-05-06 08:52 0.95681 104.20433 10792 ft 342 kts 112°
2026-05-06 08:52 0.94689 104.22624 11077 ft 349 kts 117°
2026-05-06 08:52 0.93460 104.24727 11462 ft 353 kts 121°
2026-05-06 08:53 0.92154 104.26821 11866 ft 356 kts 121°
2026-05-06 08:53 0.90833 104.28930 12308 ft 359 kts 121°
2026-05-06 08:53 0.89507 104.31052 12731 ft 361 kts 121°
2026-05-06 08:53 0.88174 104.33187 13146 ft 363 kts 121°
2026-05-06 08:54 0.86835 104.35335 13562 ft 365 kts 121°
2026-05-06 08:54 0.85489 104.37497 13909 ft 367 kts 121°
2026-05-06 08:54 0.84135 104.39670 14271 ft 369 kts 121°
2026-05-06 08:54 0.82776 104.41853 14636 ft 371 kts 121°
2026-05-06 08:55 0.81391 104.44042 14982 ft 373 kts 123°
2026-05-06 08:55 0.79887 104.46167 15340 ft 376 kts 125°
2026-05-06 08:55 0.78348 104.48282 15692 ft 377 kts 125°
2026-05-06 08:55 0.76810 104.50413 16046 ft 379 kts 125°
2026-05-06 08:56 0.75270 104.52559 16409 ft 381 kts 124°
2026-05-06 08:56 0.73721 104.54671 16732 ft 383 kts 128°
2026-05-06 08:56 0.71788 104.56512 17053 ft 388 kts 144°
2026-05-06 08:56 0.69358 104.57703 17402 ft 392 kts 160°
2026-05-06 08:57 0.66747 104.58514 17733 ft 394 kts 162°
2026-05-06 08:57 0.64105 104.59277 18051 ft 397 kts 162°
2026-05-06 08:57 0.61449 104.60049 18334 ft 399 kts 162°
2026-05-06 08:57 0.58780 104.60831 18613 ft 400 kts 162°
2026-05-06 08:58 0.56104 104.61620 18882 ft 402 kts 162°
2026-05-06 08:58 0.53412 104.62417 19168 ft 404 kts 162°
2026-05-06 08:58 0.50710 104.63219 19440 ft 406 kts 162°
2026-05-06 08:58 0.48916 104.63752 19633 ft 407 kts 162°
2026-05-06 08:59 0.46196 104.64562 19907 ft 409 kts 162°
2026-05-06 08:59 0.43465 104.65373 20157 ft 410 kts 162°
2026-05-06 08:59 0.40720 104.66184 20437 ft 412 kts 162°
2026-05-06 08:59 0.37964 104.66998 20701 ft 414 kts 162°
2026-05-06 09:00 0.35201 104.67815 20964 ft 415 kts 162°
2026-05-06 09:00 0.32419 104.68638 21222 ft 417 kts 162°
2026-05-06 09:00 0.29631 104.69464 21475 ft 419 kts 162°
2026-05-06 09:00 0.26829 104.70293 21727 ft 421 kts 162°
2026-05-06 09:01 0.24018 104.71126 21983 ft 422 kts 162°
2026-05-06 09:01 0.21195 104.71961 22225 ft 424 kts 162°
2026-05-06 09:01 0.18362 104.72800 22472 ft 426 kts 162°
2026-05-06 09:01 0.15516 104.73643 22709 ft 427 kts 162°
2026-05-06 09:02 0.12659 104.74494 22951 ft 429 kts 161°
2026-05-06 09:02 0.09795 104.75344 23189 ft 431 kts 161°
2026-05-06 09:02 0.06914 104.76199 23411 ft 432 kts 161°
2026-05-06 09:02 0.04066 104.77043 23603 ft 434 kts 161°
2026-05-06 09:03 0.01128 104.77916 23813 ft 435 kts 161°
2026-05-06 09:03 -0.01737 104.78766 24010 ft 436 kts 162°
2026-05-06 09:03 -0.04650 104.79631 24205 ft 438 kts 162°
2026-05-06 09:03 -0.07571 104.80498 24399 ft 439 kts 162°
2026-05-06 09:04 -0.10541 104.81380 24624 ft 439 kts 162°
2026-05-06 09:04 -0.13413 104.82232 25069 ft 433 kts 162°
2026-05-06 09:04 -0.16271 104.83080 25641 ft 424 kts 162°
2026-05-06 09:04 -0.19106 104.83921 26243 ft 415 kts 162°
2026-05-06 09:05 -0.21811 104.84725 26838 ft 408 kts 162°
2026-05-06 09:05 -0.24511 104.85527 27434 ft 401 kts 162°
2026-05-06 09:05 -0.27129 104.86393 28053 ft 392 kts 156°
2026-05-06 09:05 -0.29555 104.87557 28688 ft 383 kts 148°
2026-05-06 09:06 -0.31797 104.88939 29359 ft 374 kts 146°
2026-05-06 09:06 -0.33943 104.90357 30003 ft 366 kts 144°
2026-05-06 09:06 -0.36022 104.91776 30557 ft 357 kts 144°
2026-05-06 09:06 -0.38041 104.93168 31133 ft 348 kts 143°
2026-05-06 09:07 -0.40009 104.94523 31726 ft 338 kts 143°
2026-05-06 09:07 -0.41917 104.95831 32316 ft 327 kts 144°
2026-05-06 09:07 -0.43793 104.97112 32544 ft 330 kts 144°
2026-05-06 09:08 -0.47690 104.99763 32643 ft 346 kts 144°
2026-05-06 09:08 -0.51757 105.02517 32836 ft 360 kts 144°
2026-05-06 09:08 -0.53854 105.03928 32577 ft 374 kts 144°
2026-05-06 09:09 -0.56197 105.05498 30922 ft 435 kts 144°
2026-05-06 09:09 -0.58836 105.07290 29700 ft 480 kts 144°
2026-05-06 09:09 -0.61658 105.09208 28936 ft 494 kts 144°
2026-05-06 09:09 -0.64426 105.11079 30199 ft 468 kts 144°
2026-05-06 09:10 -0.67109 105.12877 31036 ft 462 kts 145°
2026-05-06 09:10 -0.69772 105.14645 31634 ft 459 kts 145°
2026-05-06 09:10 -0.72437 105.16441 31839 ft 466 kts 144°
2026-05-06 09:10 -0.75134 105.18281 31985 ft 473 kts 144°
2026-05-06 09:11 -0.77873 105.20153 32127 ft 480 kts 144°
2026-05-06 09:11 -0.80649 105.22047 32292 ft 487 kts 144°
2026-05-06 09:11 -0.83459 105.23959 32522 ft 491 kts 144°
2026-05-06 09:11 -0.86293 105.25881 32808 ft 493 kts 144°
2026-05-06 09:12 -0.89145 105.27812 33087 ft 496 kts 144°
2026-05-06 09:12 -0.92010 105.29751 33350 ft 499 kts 145°
2026-05-06 09:12 -0.94894 105.31702 33574 ft 502 kts 145°
2026-05-06 09:12 -0.97756 105.33638 33827 ft 504 kts 145°
2026-05-06 09:13 -1.00662 105.35603 34086 ft 505 kts 145°
2026-05-06 09:13 -1.03562 105.37565 34420 ft 504 kts 145°
2026-05-06 09:13 -1.06469 105.39532 34765 ft 503 kts 145°
2026-05-06 09:13 -1.09369 105.41495 35095 ft 502 kts 145°
2026-05-06 09:14 -1.12261 105.43452 35404 ft 502 kts 145°
2026-05-06 09:14 -1.15150 105.45408 35700 ft 502 kts 145°
2026-05-06 09:14 -1.18037 105.47362 35794 ft 499 kts 145°
2026-05-06 09:15 -1.23748 105.51228 35820 ft 494 kts 145°
2026-05-06 09:15 -1.29432 105.55076 35804 ft 494 kts 145°
2026-05-06 09:16 -1.35121 105.58928 35801 ft 494 kts 145°
2026-05-06 09:16 -1.40809 105.62780 35805 ft 494 kts 145°
2026-05-06 09:17 -1.46499 105.66632 35817 ft 493 kts 145°
2026-05-06 09:17 -1.52190 105.70485 35817 ft 494 kts 145°
2026-05-06 09:18 -1.57880 105.74339 35817 ft 494 kts 145°
2026-05-06 09:18 -1.63577 105.78197 35797 ft 494 kts 145°
2026-05-06 09:19 -1.69235 105.82029 35798 ft 494 kts 145°
2026-05-06 09:19 -1.74967 105.85912 35799 ft 494 kts 145°
2026-05-06 09:20 -1.76399 105.86881 35800 ft 494 kts 145°
2026-05-06 09:20 -1.81392 105.90264 35816 ft 494 kts 145°
2026-05-06 09:21 -1.87085 105.94121 35813 ft 494 kts 145°
2026-05-06 09:21 -1.92776 105.97976 35812 ft 494 kts 145°
2026-05-06 09:22 -1.98464 106.01830 35812 ft 494 kts 145°
2026-05-06 09:22 -2.04144 106.05678 35812 ft 493 kts 145°
2026-05-06 09:23 -2.09834 106.09535 35814 ft 493 kts 145°
2026-05-06 09:23 -2.15667 106.13147 35813 ft 494 kts 154°
2026-05-06 09:24 -2.22234 106.15165 35803 ft 496 kts 167°
2026-05-06 09:24 -2.29028 106.16403 35813 ft 497 kts 169°
2026-05-06 09:25 -2.35854 106.17520 35801 ft 497 kts 170°
2026-05-06 09:25 -2.42679 106.18651 35813 ft 497 kts 169°
2026-05-06 09:26 -2.49495 106.19807 35812 ft 497 kts 169°
2026-05-06 09:26 -2.56313 106.20975 35816 ft 497 kts 169°
2026-05-06 09:27 -2.63135 106.22145 35816 ft 497 kts 169°
2026-05-06 09:27 -2.69909 106.23304 35812 ft 498 kts 169°
2026-05-06 09:28 -2.76739 106.24474 35811 ft 498 kts 169°
2026-05-06 09:28 -2.83574 106.25643 35813 ft 497 kts 169°
2026-05-06 09:29 -2.90400 106.26812 35800 ft 497 kts 169°
2026-05-06 09:29 -2.97221 106.27980 35815 ft 497 kts 169°
2026-05-06 09:30 -3.04022 106.29145 35813 ft 495 kts 170°
2026-05-06 09:30 -3.10809 106.30307 35814 ft 495 kts 169°
2026-05-06 09:31 -3.17618 106.31473 35809 ft 495 kts 170°
2026-05-06 09:31 -3.24412 106.32637 35801 ft 495 kts 170°
2026-05-06 09:32 -3.31206 106.33801 35818 ft 495 kts 169°
2026-05-06 09:32 -3.38000 106.34965 35815 ft 495 kts 169°
2026-05-06 09:33 -3.44800 106.36130 35819 ft 496 kts 169°
2026-05-06 09:33 -3.51556 106.37289 35820 ft 496 kts 169°
2026-05-06 09:34 -3.58362 106.38455 35818 ft 496 kts 169°
2026-05-06 09:34 -3.65139 106.39633 35495 ft 490 kts 169°
2026-05-06 09:34 -3.68493 106.40262 34738 ft 493 kts 168°
2026-05-06 09:35 -3.71903 106.40910 34471 ft 505 kts 168°
2026-05-06 09:35 -3.75383 106.41568 34252 ft 511 kts 168°
2026-05-06 09:35 -3.78882 106.42225 34026 ft 511 kts 168°
2026-05-06 09:35 -3.82377 106.42881 33797 ft 512 kts 168°
2026-05-06 09:36 -3.85883 106.43538 33541 ft 512 kts 168°
2026-05-06 09:36 -3.89392 106.44195 33285 ft 513 kts 168°
2026-05-06 09:36 -3.92905 106.44853 33031 ft 513 kts 168°
2026-05-06 09:36 -3.96413 106.45510 32782 ft 514 kts 168°
2026-05-06 09:37 -3.99929 106.46168 32533 ft 514 kts 168°
2026-05-06 09:37 -4.03447 106.46827 32289 ft 514 kts 168°
2026-05-06 09:37 -4.06960 106.47484 32042 ft 514 kts 168°
2026-05-06 09:37 -4.10477 106.48143 31792 ft 514 kts 168°
2026-05-06 09:38 -4.13994 106.48802 31565 ft 514 kts 168°
2026-05-06 09:38 -4.17505 106.49459 31339 ft 512 kts 168°
2026-05-06 09:38 -4.21005 106.50114 31102 ft 511 kts 168°
2026-05-06 09:38 -4.24491 106.50767 30860 ft 509 kts 168°
2026-05-06 09:39 -4.27963 106.51418 30636 ft 507 kts 168°
2026-05-06 09:39 -4.31375 106.52057 30243 ft 504 kts 168°
2026-05-06 09:39 -4.34811 106.52701 29570 ft 501 kts 168°
2026-05-06 09:39 -4.38224 106.53340 28971 ft 495 kts 168°
2026-05-06 09:40 -4.41586 106.53970 28362 ft 490 kts 168°
2026-05-06 09:40 -4.44922 106.54595 27751 ft 485 kts 168°
2026-05-06 09:40 -4.51500 106.55828 26563 ft 477 kts 168°
2026-05-06 09:41 -4.54746 106.56437 25979 ft 472 kts 168°
2026-05-06 09:41 -4.57964 106.57040 25393 ft 469 kts 168°
2026-05-06 09:41 -4.61155 106.57638 24990 ft 465 kts 168°
2026-05-06 09:41 -4.64350 106.58123 24737 ft 465 kts 173°
2026-05-06 09:42 -4.67589 106.58148 24097 ft 467 kts 184°
2026-05-06 09:42 -4.70785 106.57681 23586 ft 462 kts 188°
2026-05-06 09:42 -4.73930 106.57090 22997 ft 458 kts 189°
2026-05-06 09:42 -4.77033 106.56484 22336 ft 454 kts 189°
2026-05-06 09:43 -4.80123 106.55876 21714 ft 449 kts 189°
2026-05-06 09:43 -4.83175 106.55275 21111 ft 445 kts 190°
2026-05-06 09:43 -4.86197 106.54679 20520 ft 440 kts 190°
2026-05-06 09:43 -4.89183 106.54090 20053 ft 435 kts 190°
2026-05-06 09:44 -4.92154 106.53504 19855 ft 435 kts 190°
2026-05-06 09:44 -4.95089 106.52926 19814 ft 436 kts 190°
2026-05-06 09:44 -4.98101 106.52332 19813 ft 435 kts 190°
2026-05-06 09:44 -5.01073 106.51745 19815 ft 435 kts 190°
2026-05-06 09:45 -5.04041 106.51160 19817 ft 435 kts 190°
2026-05-06 09:45 -5.07009 106.50574 19815 ft 435 kts 190°
2026-05-06 09:45 -5.09978 106.49988 19817 ft 435 kts 190°
2026-05-06 09:45 -5.12904 106.49411 19805 ft 435 kts 190°
2026-05-06 09:46 -5.15872 106.48825 19810 ft 435 kts 190°
2026-05-06 09:46 -5.18839 106.48239 19811 ft 435 kts 190°
2026-05-06 09:46 -5.21809 106.47653 19814 ft 435 kts 190°
2026-05-06 09:46 -5.24774 106.47067 19810 ft 435 kts 190°
2026-05-06 09:47 -5.27731 106.46483 19684 ft 428 kts 190°
2026-05-06 09:47 -5.29696 106.46095 19276 ft 426 kts 190°
2026-05-06 09:47 -5.32607 106.45520 18593 ft 426 kts 190°
2026-05-06 09:47 -5.35507 106.44947 17999 ft 423 kts 190°
2026-05-06 09:48 -5.38342 106.44387 17372 ft 419 kts 190°
2026-05-06 09:48 -5.41186 106.43825 16770 ft 414 kts 190°
2026-05-06 09:48 -5.43955 106.43277 16683 ft 396 kts 190°
2026-05-06 09:48 -5.46631 106.42747 16212 ft 390 kts 189°
2026-05-06 09:49 -5.49303 106.42219 15177 ft 391 kts 189°
2026-05-06 09:49 -5.51965 106.41694 14068 ft 388 kts 189°
2026-05-06 09:49 -5.54556 106.41180 13483 ft 369 kts 189°
2026-05-06 09:49 -5.56989 106.40697 13095 ft 344 kts 189°
2026-05-06 09:50 -5.59264 106.40245 12740 ft 323 kts 188°
2026-05-06 09:50 -5.61424 106.39818 12170 ft 311 kts 188°
2026-05-06 09:50 -5.63532 106.39402 11466 ft 307 kts 188°
2026-05-06 09:50 -5.65621 106.38992 10816 ft 306 kts 188°
2026-05-06 09:51 -5.67704 106.38581 10436 ft 303 kts 188°
2026-05-06 09:51 -5.69764 106.38174 10083 ft 300 kts 188°
2026-05-06 09:51 -5.71808 106.37771 9693 ft 298 kts 188°
2026-05-06 09:51 -5.73838 106.37369 9253 ft 297 kts 188°
2026-05-06 09:52 -5.75852 106.36971 9025 ft 294 kts 188°
2026-05-06 09:52 -5.77852 106.36576 8985 ft 294 kts 188°
2026-05-06 09:52 -5.79863 106.36178 9012 ft 295 kts 188°
2026-05-06 09:52 -5.81879 106.35780 8831 ft 295 kts 188°
2026-05-06 09:53 -5.83899 106.35380 8431 ft 293 kts 188°
2026-05-06 09:53 -5.85861 106.34991 8267 ft 282 kts 188°
2026-05-06 09:53 -5.87745 106.34617 8127 ft 270 kts 188°
2026-05-06 09:53 -5.89551 106.34258 7997 ft 259 kts 188°
2026-05-06 09:54 -5.91285 106.33914 7858 ft 249 kts 188°
2026-05-06 09:54 -5.92967 106.33581 7629 ft 244 kts 188°
2026-05-06 09:54 -5.94625 106.33254 7335 ft 242 kts 188°
2026-05-06 09:54 -5.96268 106.32930 7087 ft 239 kts 188°
2026-05-06 09:55 -5.97904 106.32607 7035 ft 240 kts 188°
2026-05-06 09:55 -5.99559 106.32281 6739 ft 246 kts 188°
2026-05-06 09:55 -6.01225 106.31951 6491 ft 241 kts 188°
2026-05-06 09:55 -6.02858 106.31627 6244 ft 238 kts 188°
2026-05-06 09:56 -6.04485 106.31431 5923 ft 234 kts 175°
2026-05-06 09:56 -6.06085 106.31614 5616 ft 231 kts 168°
2026-05-06 09:56 -6.07664 106.31895 5294 ft 230 kts 168°
2026-05-06 09:56 -6.09237 106.32183 4980 ft 229 kts 168°
2026-05-06 09:57 -6.10802 106.32467 4680 ft 228 kts 168°
2026-05-06 09:57 -6.12331 106.32740 4493 ft 221 kts 168°
2026-05-06 09:57 -6.13813 106.33002 4410 ft 206 kts 168°
2026-05-06 09:57 -6.15180 106.33242 4321 ft 195 kts 168°
2026-05-06 09:58 -6.16499 106.33476 4188 ft 192 kts 168°
2026-05-06 09:58 -6.17817 106.33711 4084 ft 192 kts 168°
2026-05-06 09:58 -6.19136 106.33948 4037 ft 193 kts 168°
2026-05-06 09:58 -6.20396 106.34406 4033 ft 204 kts 146°
2026-05-06 09:59 -6.21379 106.35461 4025 ft 211 kts 123°
2026-05-06 09:59 -6.22164 106.36717 4022 ft 214 kts 120°
2026-05-06 09:59 -6.22930 106.37997 4021 ft 214 kts 120°
2026-05-06 09:59 -6.23559 106.39340 4006 ft 210 kts 100°
2026-05-06 10:00 -6.23544 106.40747 3902 ft 198 kts 80°
2026-05-06 10:00 -6.23162 106.42052 3660 ft 194 kts 69°
2026-05-06 10:00 -6.22661 106.43306 3371 ft 193 kts 68°
2026-05-06 10:00 -6.22157 106.44553 3106 ft 191 kts 68°
2026-05-06 10:01 -6.21678 106.45749 3033 ft 179 kts 68°
2026-05-06 10:01 -6.21220 106.46900 3039 ft 176 kts 68°
2026-05-06 10:01 -6.20767 106.48044 3030 ft 176 kts 68°
2026-05-06 10:01 -6.20312 106.49193 2999 ft 177 kts 68°
2026-05-06 10:02 -6.19857 106.50336 2815 ft 174 kts 69°
2026-05-06 10:02 -6.19413 106.51448 2611 ft 170 kts 69°
2026-05-06 10:02 -6.18974 106.52546 2373 ft 166 kts 69°
2026-05-06 10:02 -6.18561 106.53580 2160 ft 164 kts 69°
2026-05-06 10:03 -6.18138 106.54641 1951 ft 164 kts 68°
2026-05-06 10:03 -6.17720 106.55687 1738 ft 159 kts 68°
2026-05-06 10:03 -6.17313 106.56709 1547 ft 157 kts 66°
2026-05-06 10:03 -6.16914 106.57706 1342 ft 151 kts 66°
2026-05-06 10:04 -6.16530 106.58667 1154 ft 147 kts 67°
2026-05-06 10:04 -6.16156 106.59603 959 ft 147 kts 66°
2026-05-06 10:04 -6.15779 106.60549 805 ft 145 kts 65°
2026-05-06 10:04 -6.15415 106.61460 630 ft 139 kts 65°
2026-05-06 10:05 -6.15055 106.62359 459 ft 138 kts 65°
2026-05-06 10:05 -6.14699 106.63254 298 ft 136 kts 66°
2026-05-06 10:05 -6.14349 106.64131 162 ft 135 kts 65°
2026-05-06 10:05 -6.14002 106.65008 62 ft 135 kts 65°
2026-05-06 10:06 -6.13669 106.65839 43 ft 114 kts 67°
2026-05-06 10:06 -6.13479 106.66307 45 ft 39 kts 68°
2026-05-06 10:06 -6.13372 106.66543 46 ft 35 kts 56°
2026-05-06 10:06 -6.13207 106.66699 44 ft 16 kts 20°
2026-05-06 10:07 -6.13201 106.66699 45 ft 0 kts
2026-05-06 10:07 -6.13158 106.66705 44 ft 15 kts 14°
2026-05-06 10:07 -6.13077 106.66824 45 ft 29 kts 65°
2026-05-06 10:07 -6.12994 106.67052 45 ft 41 kts 70°
2026-05-06 10:08 -6.12888 106.67300 45 ft 18 kts 68°
2026-05-06 10:08 -6.12844 106.67416 45 ft 18 kts 69°
2026-05-06 10:08 -6.12784 106.67526 45 ft 20 kts 58°
2026-05-06 10:08 -6.12714 106.67646 44 ft 21 kts 59°
2026-05-06 10:09 -6.12625 106.67771 44 ft 22 kts 46°
2026-05-06 10:09 -6.12492 106.67851 44 ft 23 kts 17°
2026-05-06 10:09 -6.12331 106.67855 44 ft 24 kts 348°
2026-05-06 10:09 -6.12181 106.67799 47 ft 22 kts 339°
2026-05-06 10:10 -6.12044 106.67744 54 ft 20 kts 338°
2026-05-06 10:10 -6.11917 106.67693 56 ft 19 kts 338°
2026-05-06 10:10 -6.11795 106.67644 63 ft 20 kts 338°
2026-05-06 10:10 -6.11652 106.67588 50 ft 28 kts 339°
2026-05-06 10:11 -6.11445 106.67508 44 ft 33 kts 336°
2026-05-06 10:11 -6.11231 106.67420 44 ft 30 kts 339°
2026-05-06 10:11 -6.11123 106.67372 44 ft 16 kts 324°
2026-05-06 10:11 -6.11088 106.67278 44 ft 15 kts 261°
2026-05-06 10:12 -6.11114 106.67160 44 ft 19 kts 256°
2026-05-06 10:12 -6.11143 106.67022 44 ft 16 kts 250°
2026-05-06 10:12 -6.11183 106.66917 44 ft 18 kts 241°
2026-05-06 10:12 -6.11284 106.66897 44 ft 17 kts 160°
2026-05-06 10:13 -6.11409 106.66943 44 ft 19 kts 172°
2026-05-06 10:13 -6.11480 106.66876 44 ft 16 kts 250°
2026-05-06 10:13 -6.11521 106.66761 44 ft 18 kts 251°
2026-05-06 10:13 -6.11575 106.66636 44 ft 21 kts 244°
2026-05-06 10:14 -6.11633 106.66491 44 ft 24 kts 249°
2026-05-06 10:14 -6.11699 106.66324 44 ft 27 kts 248°
2026-05-06 10:14 -6.11764 106.66163 44 ft 11 kts 248°
2026-05-06 10:14 -6.11765 106.66159 44 ft 0 kts 248°
2026-05-06 10:15 -6.11769 106.66151 44 ft 6 kts 244°
2026-05-06 10:15 -6.11781 106.66139 43 ft 6 kts 221°
2026-05-06 10:15 -6.11842 106.66142 44 ft 11 kts 150°
2026-05-06 10:16 -6.11863 106.66153 44 ft 4 kts 150°
2026-05-06 10:16 -6.11865 106.66154 44 ft 0 kts 156°
2026-05-06 10:16 -6.11879 106.66161 44 ft 1 kts 155°
2026-05-06 10:17 -6.11875 106.66159 44 ft 2 kts 148°
2026-05-06 10:17 -6.11873 106.66158 44 ft 0 kts 153°